Regional Weather Roundup
Issued by NWS

Home | Current Version | Previous Version | Text Only | Print | Product List | Glossary Off
Versions: 1 2 3 4 5 6 7 8 9 10 11 12 13 14 15 16 17 18 19 20 21 22 23 24 25 26 27 28 29 30 31 32 33 34 35 36 37 38 39 40 41 42 43 44 45 46 47 48 49 50

000
ASUS45 KSLC 212110
RWRUT

UTAH REGIONAL WEATHER ROUNDUP
NATIONAL WEATHER SERVICE SALT LAKE CITY UT
300 PM MDT MON MAY 21 2018

UTZ001>011-023>025-212200-

NORTHERN UTAH

CITY           SKY/WX    TMP DP  RH WIND       PRES   REMARKS
BRIGHAM CITY   MOSUNNY   78  34  20 CALM      29.86F
DUGWAY         CLOUDY    77  39  24 NW3       29.85F
HILL AFB       MOSUNNY   74  41  30 N6        29.88F
LOGAN          MOSUNNY   76  44  32 VRB7      29.86F
OGDEN          CLOUDY    75  41  29 NW8       29.86F
SALT LAKE CITY CLOUDY    79  44  28 VRB7      29.84F
TOOELE VALLEY  CLOUDY    73  45  35 N9        29.86F
WENDOVER       PTSUNNY   76  39  26 E7        29.86F
HEBER CITY       N/A     70  32  24 NE9       29.93F
WEST JORDAN    CLOUDY    76  49  39 N10G16    29.87F

$$

UTZ011>015-024>027-212200-

CENTRAL/NORTHEAST UTAH

CITY           SKY/WX    TMP DP  RH WIND       PRES   REMARKS
PROVO AIRPORT  CLOUDY    74  49  41 SW7       29.87F
MOAB/CANYONLAN CLOUDY    81  15   8 VRB6      29.83F
DELTA          CLOUDY    73  32  21 W8        29.86F
PRICE          CLOUDY    73  29  19 SE8       29.96F
ROOSEVELT      PTSUNNY   77  32  19 CALM      29.94F
VERNAL         MOSUNNY   77  32  19 VRB3      29.93F

$$

UTZ013>016-019>022-027-212200-

SOUTHERN UTAH

CITY           SKY/WX    TMP DP  RH WIND       PRES   REMARKS
BRYCE CANYON   CLOUDY    63  16  16 SE15G23   30.04F
CEDAR CITY     CLOUDY    74  14  10 SE12G20   29.90S
MILFORD        CLOUDY    76  23  14 S6        29.84F
ST GEORGE      CLOUDY    83  25  12 SE21      29.77F
HANKSVILLE     CLOUDY    81  25  12 W5        29.88F
BLANDING         N/A     76  18  11 CALM      30.00F

$$

REGIONAL REPORTS     COLORADO/ARIZONA

CITY           SKY/WX    TMP DP  RH WIND       PRES   REMARKS
CRAIG, CO      MOSUNNY   79  22  12 SW17      29.98F
GRAND JUNCTION PTSUNNY   84  27  12 W9        29.86F
RIFLE, CO      PTSUNNY   81  16   9 W10G20    29.92F
MONTROSE, CO   CLOUDY    79  18  10 VRB7      29.92F
CORTEZ, CO     CLOUDY    79  14   8 SW7       29.92F
COLORADO CITY    N/A     73  21  14 SE9       29.92F
PAGE, AZ       CLOUDY    83  11   6 S14G22    29.83F
GRAND CANYON   CLOUDY    67  16  14 SW9G20    29.98F
KINGMAN, AZ    CLOUDY    77  29  17 CALM      29.82F
FLAGSTAFF, AZ  PTSUNNY   66  21  18 S14G28    29.99F

$$

REGIONAL REPORTS    NEVADA/IDAHO/WYOMING

CITY           SKY/WX    TMP DP  RH WIND       PRES   REMARKS
LAS VEGAS, NV  PTSUNNY   82  40  22 E12       29.73F
ELY, NY        LGT RAIN  57  39  51 S16       29.96R
ELKO, NV       MOSUNNY   73  38  27 NE5       29.86F
POCATELLO, ID  MOSUNNY   73  47  39 NW8       29.92F
BURLEY, ID     MOSUNNY   74  48  39 VRB5      29.90F
FORT BRIDGER,  MOCLDY    66  31  27 SW6G20    30.06S
EVANSTON, WY   CLOUDY    61  34  36 VRB6      30.03F
ROCK SPRINGS,  LGT RAIN  60  35  39 S13G18    30.05R
KEMMERER, WY   LGT RAIN  59  32  36 SW18      30.07R

$$



USA.gov is the U.S. government's official web portal to all federal, state and local government web resources and services.